Content
SEND FEEDBACK

Daily
Averages
Monthly
Summary
United States of America

ASHEVILLE, NORTH CAROLINA


Home > North America > United States > North Carolina
Elevation: 2240 feet     Latitude: 35 36N     Longitude: 082 32W

WEATHER
 
SELECT A DAY
Number of Records: 226,181;   Date Range: 1/1/95 - 8/22/14
 
SHARE

PRINT THIS DATA

[ ← Previous Day ]
WEATHER ALMANAC - MARCH 8, 2013
[ Next Day → ]
[ °C ]   °F
Weather ElementAverageHighLow
Temperature37.8 °F51.1 °F (2:54 pm)27 °F (5:54 am)
Dewpoint20.2 °F24.1 °F (9:54 pm)12.9 °F (3:54 pm)
Humidity53.7 %81 % (5:54 am)23 % (3:54 pm)
Barometer30.29 in30.34 in (7:54 am)30.24 in (3:54 pm)
Wind Speed11.8 mph18.4 mph (5:54 pm)
Wind Gust25.3 mph (3:54 pm)
Weather ElementAverage
Visibility10 mi
Wind DirectionWNW (287.8 °)

Weather ElementTotal
Precipitation---
Heating Degree Days26 (Base 65)
Averaged from 23 records on March 8, 2013
WEATHER CONDITIONS BREAKOUT
WIND DIRECTION BREAKOUT
WEATHER BY HOUR - MARCH 8, 2013
[ °C ]   °F
Local TimeTemperatureDewpointHumidityBarometerVisibilityWind DirectionWind SpeedGust SpeedPrecipitationEventsConditions
1:54 AM28.9 °F23.0 °F78 %30.27 in10.0 miNorth (350°)15.0 mph20.7 mphClear
2:54 AM28.0 °F21.9 °F78 %30.25 in10.0 miNNW (340°)17.3 mphClear
3:54 AM28.0 °F21.9 °F78 %30.25 in10.0 miNNW (340°)13.8 mphClear
4:54 AM28.0 °F21.9 °F78 %30.26 in10.0 miNorth (350°)13.8 mphClear
5:54 AM27.0 °F21.9 °F81 %30.29 in10.0 miNNW (340°)15.0 mphClear
6:54 AM27.0 °F21.9 °F81 %30.32 in10.0 miNNW (340°)10.4 mphClear
7:54 AM28.9 °F21.9 °F75 %30.34 in10.0 miNorth (350°)9.2 mphClear
8:54 AM32.0 °F21.9 °F66 %30.34 in10.0 miNorth (350°)8.1 mph16.1 mphClear
9:54 AM37.0 °F21.0 °F52 %30.34 in10.0 miNorth (350°)13.8 mphClear
10:54 AM39.0 °F19.0 °F45 %30.33 in10.0 miNorth (360°)16.1 mph20.7 mphClear
11:54 AM43.0 °F15.1 °F32 %30.32 in10.0 miNorth (350°)15.0 mph24.2 mphClear
12:54 PM46.0 °F16.0 °F30 %30.30 in10.0 miNorth (350°)13.8 mph21.9 mphClear
1:54 PM48.0 °F17.1 °F29 %30.27 in10.0 miNorth (350°)11.5 mph20.7 mphClear
2:54 PM51.1 °F16.0 °F25 %30.26 in10.0 miNorth (10°)12.7 mph20.7 mphClear
3:54 PM50.0 °F12.9 °F23 %30.24 in10.0 miNorth (10°)13.8 mph25.3 mphClear
4:54 PM48.9 °F18.0 °F29 %30.25 in10.0 miNorth (360°)12.7 mph20.7 mphClear
5:54 PM46.9 °F18.0 °F32 %30.26 in10.0 miNNW (340°)18.4 mphClear
6:54 PM44.1 °F19.9 °F38 %30.27 in10.0 miNNW (340°)16.1 mph23.0 mphClear
7:54 PM41.0 °F21.9 °F47 %30.30 in10.0 miNorth (350°)5.8 mphClear
8:54 PM37.9 °F23.0 °F55 %30.33 in10.0 miNorth (350°)5.8 mphClear
9:54 PM37.0 °F24.1 °F59 %30.32 in10.0 miNNW (340°)12.7 mphClear
10:54 PM37.0 °F24.1 °F59 %30.30 in10.0 miCalmClear
11:54 PM34.0 °F23.0 °F64 %30.30 in10.0 miCalmClear
Hourly data recorded from KAVL, located miles away from Asheville, North Carolina







STORIES FROM OUR PARTNERS